Overview Statistics Trail Chart Weather Telemetry Raw packets
 

This is the latest recevied weather packets stored in our database for station/object K2CAT. If no packets are shown the sender has not sent any weather packets the latest 10 day(s).

<< 27 28 29 30 31 32 33 >>
Time Temp. Humidity Pressure Rain* Wind** Luminosity Snow
1777514488 10° C 92% 1010.7 hPa 1.27 mm - 0 W/m² -
1777514186 10° C 92% 1010.7 hPa 1.27 mm - 0 W/m² -
1777513882 10.56° C 92% 1010.6 hPa 1.27 mm - 0 W/m² -
1777513580 10.56° C 93% 1010.8 hPa 0 mm - 0 W/m² -
1777513276 11.11° C 93% 1010.8 hPa 1.78 mm - 0 W/m² -
1777512972 11.11° C 92% 1010.5 hPa 1.78 mm - 0 W/m² -
1777512669 11.11° C 90% 1010.5 hPa 1.78 mm - 0 W/m² -
1777512366 11.11° C 90% 1010.6 hPa 1.78 mm - 0 W/m² -
1777512062 11.67° C 88% 1010.6 hPa 1.78 mm - 0 W/m² -
1777511761 11.67° C 87% 1010.6 hPa 1.27 mm - 0 W/m² -
1777511457 11.67° C 86% 1010.6 hPa 1.27 mm - 0 W/m² -
1777511154 12.22° C 85% 1010.6 hPa 1.78 mm - 0 W/m² -
1777510850 12.78° C 84% 1010.4 hPa 1.78 mm - 0 W/m² -
1777510547 12.78° C 79% 1010.4 hPa 1.27 mm - 0 W/m² -
1777510243 13.33° C 77% 1010.2 hPa 1.27 mm - 0 W/m² -
1777509939 13.89° C 75% 1010.2 hPa 0 mm - 0 W/m² -
1777509635 13.89° C 73% 1010.2 hPa 0 mm - 0 W/m² -
1777509332 14.44° C 69% 1010.2 hPa 0 mm - 0 W/m² -
1777509030 15° C 71% 1010.3 hPa 0 mm - 0 W/m² -
1777508727 15° C 67% 1010 hPa 0 mm - 0 W/m² -
1777508424 15° C 64% 1009.9 hPa 0 mm - 0 W/m² -
1777508125 15.56° C 63% 1009.8 hPa 0 mm - 0 W/m² -
1777507817 15.56° C 63% 1009.6 hPa 0 mm - 0 W/m² -
1777507515 15.56° C 63% 1009.8 hPa 0 mm - 0 W/m² -
1777507211 15.56° C 63% 1009.6 hPa 0 mm - 0 W/m² -

* Rain latest hour (hover to see other rain measurements)
** Current wind speed in m/s (hover to see current wind gust speed)